Duluth, MN

1:18 AM CDT on March 26, 2017 (GMT -0500)
Duluth International

Weather History for KDLH - February, 2013

Change the Weather History Date:

Tuesday, February 19, 2013

  Actual Average Record
Temperature  
Mean Temperature 1 °F 16 °F  
Max Temperature 7 °F 25 °F 51 °F (1930)
Min Temperature -6 °F 7 °F -28 °F (1966)
Degree Days  
Heating Degree Days 64 49  
Month to date heating degree days 1010 978  
Since 1 July heating degree days 6113 6446  
Cooling Degree Days 0 0  
Month to date cooling degree days 0 0  
Year to date cooling degree days 0 0  
Moisture  
Dew Point -9 °F    
Average Humidity 66    
Maximum Humidity 79    
Minimum Humidity 53    
Precipitation  
Precipitation T in 0.03 in 0.93 in (1939)
Month to date precipitation 0.78 0.48  
Year to date precipitation 2.17 1.44  
Snow  
Snow 0.10 in 0.50 in 3.60 in (1949)
Month to date snowfall 13.8 7.9  
Since 1 July snowfall 47.5 61.1  
Snow Depth 12.00 in    
Sea Level Pressure  
Sea Level Pressure 30.05 in    
Wind  
Wind Speed 20 mph (NNW)    
Max Wind Speed 33 mph    
Max Gust Speed 44 mph    
Visibility 8 miles    
Events Snow    
T = Trace of Precipitation, MM = Missing Value Source: NWS Daily Summary

Daily Weather History Graph

Daily Weather History Graph

Search for Another Location

Airport or City:

Trip Planner

Search our weather history database for the weather conditions in past years. The results will help you decide how hot, cold, wet, or windy it might be!

Date:

Astronomy

Feb. 19, 2013 Rise Set
Actual Time 7:05 AM CST 5:40 PM CST
Civil Twilight 6:34 AM CST 6:10 PM CST
Nautical Twilight 5:59 AM CST 6:46 PM CST
Astronomical Twilight 5:24 AM CST 7:21 PM CST
Moon 12:00 PM CST (2/19) 2:49 AM CST (2/19)
Length of Visible Light 11h 36m
Length of Day
10h 34m
Waxing Gibbous, 67% of the Moon is Illuminated
Feb 19
Waxing Gibbous
Feb 25
Full
Mar 4
Last Quarter
Mar 11
New
Mar 19
First Quarter

Hourly Weather History & Observations

Time (CST) Temp. Windchill Dew Point Humidity Pressure Visibility Wind Dir Wind Speed Gust Speed Precip Events Conditions
12:55 AM 6.1 °F -15.7 °F -2.0 °F 69% 29.75 in 5.0 mi NNW 24.2 mph 42.6 mph 0.00 in Snow Light Snow
1:44 AM 5.0 °F -16.2 °F -2.2 °F 72% 29.67 in 2.5 mi NNW 21.9 mph 36.8 mph 0.00 in Snow Light Snow
1:55 AM 3.9 °F -19.8 °F -2.9 °F 73% 29.78 in 2.5 mi NNW 27.6 mph 35.7 mph 0.00 in Snow Light Snow
2:02 AM 3.2 °F -19.9 °F -2.2 °F 78% 29.68 in 3.0 mi NNW 25.3 mph 36.8 mph 0.00 in Snow Light Snow
2:55 AM 1.9 °F -23.2 °F -5.1 °F 72% 29.80 in 5.0 mi NNW 29.9 mph 40.3 mph 0.00 in Snow Light Snow
3:55 AM -0.0 °F -21.8 °F -9.0 °F 66% 29.82 in 6.0 mi NNW 19.6 mph 36.8 mph 0.00 in Snow Light Snow
4:55 AM -2.0 °F -25.0 °F -9.9 °F 69% 29.85 in 4.0 mi NW 20.7 mph 29.9 mph 0.00 in Snow Light Snow
5:55 AM -4.0 °F -27.0 °F -11.9 °F 69% 29.88 in 6.0 mi NNW 19.6 mph 35.7 mph 0.00 in Snow Light Snow
6:55 AM -5.1 °F -30.5 °F -14.1 °F 65% 29.91 in 7.0 mi NW 24.2 mph 36.8 mph 0.00 in   Mostly Cloudy
7:55 AM -6.0 °F -29.6 °F -14.1 °F 68% 29.96 in 10.0 mi NNW 19.6 mph 36.8 mph N/A   Scattered Clouds
8:55 AM -5.1 °F -31.0 °F -14.1 °F 65% 29.98 in 10.0 mi NNW 25.3 mph 35.7 mph N/A   Scattered Clouds
9:55 AM -2.9 °F -25.0 °F -13.0 °F 62% 30.01 in 10.0 mi NNW 18.4 mph 33.4 mph N/A   Scattered Clouds
10:55 AM -0.9 °F -25.0 °F -13.0 °F 57% 30.04 in 10.0 mi NW 24.2 mph 29.9 mph N/A   Partly Cloudy
11:55 AM 1.0 °F -19.3 °F -11.9 °F 55% 30.07 in 10.0 mi NNW 17.3 mph 32.2 mph N/A   Clear
12:55 PM 1.9 °F -20.2 °F -11.9 °F 52% 30.09 in 10.0 mi NNW 21.9 mph 31.1 mph N/A   Partly Cloudy
1:55 PM 3.9 °F -16.1 °F -9.9 °F 53% 30.10 in 10.0 mi NNW 18.4 mph 29.9 mph N/A   Partly Cloudy
2:55 PM 5.0 °F -16.7 °F -9.0 °F 52% 30.14 in 10.0 mi NW 23.0 mph 28.8 mph N/A   Partly Cloudy
3:55 PM 6.1 °F -13.8 °F -8.0 °F 53% 30.18 in 10.0 mi NNW 19.6 mph 26.5 mph N/A   Partly Cloudy
4:55 PM 5.0 °F -14.7 °F -9.0 °F 52% 30.22 in 10.0 mi NNW 18.4 mph 25.3 mph N/A   Partly Cloudy
6:55 PM 1.9 °F -16.2 °F -8.0 °F 63% 30.29 in 10.0 mi NNW 13.8 mph 21.9 mph N/A   Partly Cloudy
7:55 PM 3.0 °F -16.1 °F -7.1 °F 63% 30.31 in 10.0 mi North 16.1 mph 26.5 mph N/A   Clear
8:55 PM 3.0 °F -16.1 °F -7.1 °F 63% 30.33 in 10.0 mi NNW 16.1 mph 27.6 mph N/A   Partly Cloudy
9:55 PM 1.9 °F -19.2 °F -7.1 °F 66% 30.33 in 10.0 mi NNW 19.6 mph 27.6 mph N/A   Clear
10:55 PM 1.0 °F -14.9 °F -8.0 °F 66% 30.37 in 10.0 mi North 10.4 mph 18.4 mph N/A   Clear
11:55 PM -0.4 °F -20.5 °F -7.6 °F 72% 30.24 in 10.0 mi North 16.1 mph 24.2 mph N/A   Clear